Total_Precipitation_Accumulation
0.64 0.98 1.28 1.13 1.13 1.18 1.03 1.05 1.11 1.09 0.93 1.03 1.11 1.06 1.12 1.10 1.08 0.93 0.83 0.76 0.76 0.74 0.75 0.72 0.72 0.79 0.79 0.72 0.70 0.79 0.96 1.13 1.31 1.44 1.57 1.71 1.83 1.88 1.85 1.82 1.86 1.76 1.56 1.62
0.85 0.99 0.82 0.75 0.82 0.91 0.94 1.00 1.05 0.98 0.82 0.91 0.97 1.00 1.04 0.97 0.90 0.76 0.70 0.66 0.63 0.60 0.63 0.63 0.57 0.57 0.60 0.63 0.65 0.74 0.91 1.16 1.37 1.56 1.77 1.91 2.22 2.33 2.29 2.31 2.19 2.11 1.97 1.98
0.81 0.72 0.60 0.71 0.83 0.93 0.91 0.88 0.91 0.90 0.92 0.93 0.93 1.08 1.09 1.03 0.87 0.70 0.60 0.55 0.51 0.48 0.52 0.55 0.49 0.47 0.44 0.48 0.57 0.68 0.79 1.01 1.33 1.65 1.91 2.09 2.29 2.52 2.59 2.44 2.37 2.35 2.38 2.41
0.67 0.56 0.53 0.65 0.70 0.79 1.02 0.66 0.61 0.67 0.86 1.11 0.93 1.28 1.08 0.98 0.89 0.72 0.62 0.55 0.51 0.51 0.52 0.51 0.48 0.48 0.46 0.51 0.59 0.70 0.80 0.94 1.15 1.41 1.77 2.07 2.33 2.62 2.62 2.50 2.45 2.50 2.56 2.58
0.61 0.54 0.56 0.66 0.59 0.60 0.75 0.51 0.53 0.64 0.71 0.78 0.69 0.98 1.01 0.83 0.90 0.81 0.72 0.66 0.58 0.53 0.55 0.51 0.49 0.49 0.53 0.56 0.62 0.76 0.88 1.00 1.17 1.42 1.74 2.08 2.29 2.47 2.60 2.56 2.42 2.37 2.43 2.36
0.55 0.47 0.48 0.50 0.45 0.48 0.56 0.56 0.60 0.64 0.74 0.88 0.55 0.74 0.96 0.86 0.83 0.82 0.78 0.75 0.65 0.50 0.53 0.56 0.59 0.59 0.59 0.62 0.73 0.87 1.00 1.14 1.28 1.41 1.55 1.71 1.91 2.18 2.31 2.42 2.39 2.38 2.39 2.26
0.55 0.48 0.37 0.35 0.52 0.53 0.56 0.84 1.14 1.10 1.08 0.92 0.45 0.65 0.88 0.72 0.63 0.64 0.64 0.64 0.62 0.57 0.60 0.68 0.76 0.74 0.72 0.73 0.88 1.00 1.11 1.17 1.23 1.22 1.29 1.41 1.57 1.79 1.91 2.00 2.13 2.18 2.23 2.21
0.57 0.53 0.38 0.32 0.42 0.56 0.55 0.72 1.17 1.24 1.06 0.86 0.68 0.90 0.94 0.65 0.54 0.55 0.56 0.55 0.57 0.64 0.71 0.86 0.98 1.01 0.94 0.93 0.97 0.99 1.09 1.07 1.07 1.11 1.17 1.26 1.36 1.52 1.59 1.64 1.76 1.83 1.80 1.79
0.54 0.48 0.28 0.25 0.26 0.36 0.49 0.46 0.50 0.73 0.72 0.84 0.82 0.94 0.89 0.60 0.51 0.53 0.57 0.58 0.60 0.73 0.85 1.02 1.20 1.24 1.16 1.09 1.05 1.07 1.16 1.12 1.05 1.09 1.18 1.24 1.28 1.30 1.29 1.33 1.29 1.32 1.38 1.39
0.42 0.45 0.30 0.23 0.27 0.29 0.35 0.39 0.50 0.83 1.09 1.15 0.96 1.00 1.05 0.76 0.59 0.58 0.67 0.79 0.87 1.00 1.05 1.20 1.33 1.34 1.29 1.33 1.31 1.16 1.15 1.20 1.14 1.23 1.27 1.23 1.20 1.17 1.17 1.17 1.18 1.18 1.26 1.33
0.36 0.48 0.37 0.28 0.31 0.33 0.31 0.39 0.56 0.83 0.92 1.25 1.42 1.36 0.95 0.76 0.72 0.71 0.78 1.07 1.15 1.21 1.28 1.31 1.39 1.38 1.27 1.27 1.25 1.24 1.19 1.18 1.20 1.23 1.26 1.15 1.16 1.20 1.18 1.13 1.16 1.23 1.29 1.38
0.41 0.54 0.46 0.28 0.25 0.29 0.42 0.55 0.74 1.17 1.15 1.07 1.47 1.52 0.95 0.79 0.82 0.83 0.85 0.91 0.98 1.19 1.28 1.28 1.36 1.34 1.25 1.21 1.10 1.15 1.22 1.21 1.29 1.32 1.24 1.17 1.24 1.30 1.34 1.30 1.26 1.27 1.28 1.27
0.54 0.71 0.74 0.57 0.54 0.50 0.54 0.62 0.77 0.99 1.20 1.24 1.41 1.41 0.97 0.75 0.74 0.79 0.87 0.86 0.92 1.02 1.04 0.99 1.06 1.17 1.15 1.10 1.03 1.13 1.19 1.23 1.26 1.33 1.34 1.23 1.14 1.19 1.26 1.29 1.25 1.22 1.21 1.22
0.54 0.70 0.82 0.84 0.74 0.65 0.59 0.53 0.60 0.86 1.17 1.19 1.23 1.15 0.87 0.74 0.72 0.76 0.79 0.84 0.82 0.80 0.80 0.75 0.74 0.83 0.85 0.87 0.94 1.02 1.16 1.31 1.33 1.35 1.34 1.30 1.25 1.28 1.22 1.16 1.15 1.14 1.10 1.05
0.46 0.47 0.42 0.36 0.33 0.37 0.44 0.46 0.55 0.70 0.87 1.11 1.00 0.78 0.66 0.64 0.62 0.64 0.70 0.63 0.58 0.57 0.59 0.60 0.59 0.61 0.63 0.68 0.78 0.86 0.96 1.16 1.29 1.39 1.39 1.31 1.27 1.22 1.19 1.13 1.05 1.04 0.96 0.94
0.48 0.42 0.28 0.21 0.21 0.27 0.38 0.49 0.63 0.69 0.75 0.77 0.68 0.64 0.50 0.47 0.43 0.44 0.50 0.51 0.51 0.46 0.42 0.42 0.47 0.49 0.54 0.59 0.67 0.71 0.81 0.98 1.10 1.17 1.21 1.29 1.28 1.13 1.05 1.00 0.99 0.95 0.90 0.88
0.35 0.35 0.30 0.23 0.19 0.30 0.52 0.60 0.67 0.66 0.62 0.54 0.51 0.46 0.34 0.31 0.28 0.29 0.34 0.39 0.45 0.44 0.37 0.35 0.36 0.40 0.48 0.57 0.60 0.65 0.77 0.90 0.96 1.03 1.06 1.12 1.12 0.99 0.94 0.86 0.82 0.83 0.82 0.85
0.32 0.36 0.43 0.33 0.28 0.53 0.71 0.57 0.52 0.58 0.48 0.34 0.31 0.30 0.27 0.23 0.20 0.19 0.20 0.23 0.26 0.28 0.29 0.34 0.31 0.32 0.36 0.44 0.55 0.69 0.74 0.76 0.78 0.86 0.89 0.90 0.91 0.88 0.84 0.74 0.72 0.75 0.80 0.85
0.31 0.42 0.54 0.49 0.47 0.58 0.64 0.44 0.42 0.51 0.49 0.28 0.22 0.21 0.18 0.17 0.16 0.14 0.13 0.15 0.16 0.17 0.21 0.25 0.25 0.25 0.26 0.29 0.33 0.40 0.46 0.51 0.54 0.65 0.73 0.78 0.80 0.79 0.75 0.71 0.79 0.83 0.82 0.84
0.43 0.52 0.59 0.58 0.67 0.74 0.51 0.23 0.22 0.38 0.58 0.27 0.17 0.16 0.14 0.14 0.17 0.15 0.14 0.16 0.14 0.12 0.13 0.17 0.20 0.19 0.19 0.20 0.21 0.25 0.32 0.37 0.41 0.48 0.56 0.64 0.72 0.74 0.79 0.92 1.01 1.04 0.99 0.90
0.36 0.45 0.56 0.63 0.84 0.78 0.46 0.22 0.24 0.46 0.61 0.32 0.17 0.15 0.17 0.17 0.16 0.14 0.15 0.16 0.15 0.12 0.12 0.14 0.16 0.16 0.17 0.18 0.18 0.21 0.27 0.28 0.32 0.32 0.40 0.52 0.68 0.77 0.89 1.04 1.08 1.05 1.00 0.89
0.40 0.53 0.65 0.78 1.00 1.02 0.52 0.31 0.38 0.38 0.26 0.21 0.15 0.14 0.14 0.15 0.15 0.16 0.16 0.15 0.15 0.16 0.14 0.14 0.13 0.13 0.16 0.18 0.18 0.20 0.28 0.30 0.36 0.37 0.39 0.45 0.58 0.72 0.90 1.04 1.04 1.05 1.04 0.95
0.35 0.61 0.87 0.89 0.88 0.67 0.41 0.31 0.25 0.21 0.22 0.15 0.13 0.15 0.15 0.15 0.15 0.15 0.17 0.16 0.15 0.16 0.17 0.16 0.14 0.13 0.14 0.16 0.20 0.22 0.26 0.30 0.33 0.37 0.34 0.36 0.44 0.59 0.76 0.86 0.89 0.94 0.98 0.94
0.21 0.30 0.49 0.48 0.34 0.26 0.22 0.20 0.16 0.12 0.13 0.11 0.10 0.12 0.17 0.21 0.20 0.16 0.16 0.18 0.18 0.17 0.17 0.16 0.15 0.15 0.15 0.17 0.20 0.24 0.29 0.30 0.30 0.32 0.33 0.32 0.33 0.37 0.47 0.55 0.62 0.71 0.77 0.79
0.21 0.26 0.36 0.35 0.22 0.16 0.16 0.17 0.14 0.11 0.11 0.10 0.10 0.10 0.12 0.17 0.18 0.14 0.16 0.16 0.17 0.18 0.19 0.17 0.18 0.20 0.19 0.19 0.20 0.24 0.28 0.31 0.31 0.32 0.34 0.34 0.35 0.38 0.40 0.43 0.47 0.53 0.57 0.68
0.14 0.21 0.30 0.32 0.22 0.17 0.14 0.15 0.15 0.13 0.11 0.11 0.11 0.12 0.15 0.17 0.18 0.18 0.16 0.16 0.15 0.17 0.19 0.21 0.22 0.24 0.22 0.21 0.22 0.22 0.23 0.26 0.29 0.30 0.29 0.28 0.30 0.34 0.35 0.39 0.43 0.48 0.48 0.56